Location: Newark
(44.4156°N, 12.1972°E)
Time: 07:28:22
(UTC+00:00)

STARLINK-1110 - Pass Details

Date: 30 January 2020
Orbit: 348 x 351 km, 53.0° (Epoch: 23 February)

Event Time Altitude Azimuth Distance (km) Brightness Sun altitude
Rises 16:39:14 0° 307° (NW) 2,167 7.2 -4.5°
Reaches altitude 10° 16:41:28 10° 321° (NW) 1,322 5.8 -4.9°
Maximum altitude 16:43:58 24° 19° (NNE) 781 4.1 -5.3°
Drops below altitude 10° 16:46:27 10° 77° (ENE) 1,319 4.9 -5.7°
Enters shadow 16:47:00 - 82° (E) 1,516 5.2 -5.8°
